Weather Roundup
Issued by NWS Chicago, IL

Home | Current Version | Previous Version | Graphics & Text | Print | Product List | Glossary On
Versions: 1 2 3 4 5 6 7 8 9 10 11 12 13 14 15 16 17 18 19 20 21 22 23 24 25 26 27 28 29 30 31 32 33 34 35 36 37 38 39 40 41 42 43 44 45 46 47 48 49 50
000
NZUS59 KLOT 271908
HRRLOT

CHICAGO AREA WEATHER ROUNDUP
NATIONAL WEATHER SERVICE CHICAGO/ROMEOVILLE IL
200 PM CDT SAT AUG 27 2016

NOTE: "FAIR" INDICATES FEW OR NO CLOUDS BELOW 12,000 FEET WITH NO
SIGNIFICANT WEATHER AND/OR OBSTRUCTIONS TO VISIBILITY.

* THESE STATIONS ARE NOT UNDER NWS QUALITY CONTROL. THEY ALSO MAY NOT
  REPORT WEATHER SUCH AS PRECIPITATION OR FOG.

ILZ005-006-012>014-019>023-272000-
NORTHEAST ILLINOIS

CITY           SKY/WX    TMP DP  RH WIND       PRES   REMARKS
OHARE          PTSUNNY   80  70  71 SW12      30.02F HX  83
MIDWAY         PTSUNNY   82  71  69 SW13      30.02F HX  86
AURORA         PTSUNNY   81  71  71 S9G18     30.03F HX  85
LANSING*       MOSUNNY   83  75  79 SW10      30.04F HX  90
JOLIET*        MOSUNNY   83  74  73 S9        30.03F HX  90
WAUKEGAN       CLOUDY    79  71  76 S14       30.02F HX  82
DUPAGE AIRPORT CLOUDY    80  71  74 S9        30.03F HX  84
WHEELING       CLOUDY    80  70  71 S12       30.04S HX  83
KANKAKEE*      PTSUNNY   84  74  71 SW8       30.05S HX  90
MORRIS*        MOSUNNY   83  72  69 SW9       30.02F HX  87
LEWIS AIRPORT* MOSUNNY   81  74  80 SW7       30.03F HX  86
NORTHERLY ISL    N/A     81  68  64 S8          N/A  HX  84
$$

WIZ051-052-058>065-066-070>072-272000-
SOUTHEAST WISCONSIN

CITY           SKY/WX    TMP DP  RH WIND       PRES   REMARKS
MILWAUKEE      CLOUDY    75  69  81 SE7       30.02F
KENOSHA*       CLOUDY    78  70  76 SW10      30.03F HX  80
RACINE*        CLOUDY    75  70  84 S8        30.04F
BURLINGTON     CLOUDY    74  69  83 CALM      30.02F
$$

INZ001>003-010>013-019-020-272000-
NORTHWEST INDIANA

CITY           SKY/WX    TMP DP  RH WIND       PRES   REMARKS
GARY*          PTSUNNY   84  72  65 SE7       30.04F HX  89
MICHIGAN CITY* NOT AVBL
RENSSELAER*    NOT AVBL
VALPARAISO     CLOUDY    82  71  69 SW9       30.06S HX  86
$$

LMZ740>746-272000-
SOUTHERN LAKE MICHIGAN

STATION/POSITION TIME  SKY/WX   TEMP WIND        PRES    VSBY
                                AIR  DIR/SP/G
                 (UTC)          (F)  (DEG/KT/KT) (MB)    (MI)
HARRISON CRIB    1800            77  160/  8/  9   N/A
BURNHAM HARBOR   1900            80  180/  7/ 11   N/A
CALUMET HARBOR   1800            79  170/ 11/ 14 1016.8F
BURNS HARBOR     1809            80  190/  9/ 16 1017.6F
MICHIGAN CITY    1800            78  140/ 11/ 15   N/A
$$

ABBREVIATIONS USED IN REMARKS
   TC - TEMPERATURE IN CELSIUS
  WCI - WIND CHILL INDEX
   HX - HEAT INDEX
  VSB - VISIBILITY
$$




USA.gov is the U.S. government's official web portal to all federal, state and local government web resources and services.